User: anonymous   Login
Location: Newark
(39.2833°N, 16.3333°E)
Time: 14:52:32
(UTC+00:00)
Language:

LightSail 2 - Orbit

View from above orbital plane
View from above orbital plane
View from above satellite
View from above satellite

Ground track
Ground track

The orbit data is extracted from the following two-line orbital elements,

1 44420U 19036AC  19318.49907583  .00005949  00000-0  13430-2 0  9990
2 44420  24.0079  30.1266 0017723 314.8241  45.0814 14.53648913 18835
Epoch (UTC): 14 November 2019 11:58:40
Eccentricity: 0.0017723
inclination: 24.0079°
perigee height: 701 km
apogee height: 726 km
right ascension of ascending node: 30.1266°
argument of perigee: 314.8241°
revolutions per day: 14.53648913
mean anomaly at epoch: 45.0814°
orbit number at epoch: 1883

The dashed part of the orbit path shows where the satellite is in the earth's shadow,  

DLR